Location: The Rolnick Observatory
(41.1711°N, 73.3275°W)
Time: 13:36:43
(UTC-04:00)

Daily predictions for brighter satellites

Satellite Brightness Start Highest point End
(mag) Time Altitude Azimuth Time Altitude Azimuth Time Altitude Azimuth
ERS-1 Rocket 3.1 20:39:01 10° SSE 20:43:57 60° ENE 20:48:54 10° N
Cosmos 2278 Rocket 2.4 20:39:25 10° NNW 20:45:07 80° WSW 20:50:46 10° SSE
Milstar 3 Cent rocket 4.0 20:39:24 10° WSW 20:45:57 25° SSW 20:50:20 10° SE
Cosmos 2233 Rocket 4.1 20:40:16 10° N 20:46:35 89° WSW 20:52:47 10° S
USA 234 3.9 20:41:52 10° ESE 20:48:08 50° NNE 20:54:26 10° NW
Cosmos 1939 Rocket 3.7 20:44:32 10° SE 20:48:21 36° ENE 20:52:11 10° N
SL-24 R/B - RUBIN 2 4.2 20:45:02 10° SSW 20:50:17 65° ESE 20:56:17 10° NE
GEOS 3 Rocket 4.5 20:48:13 10° SSE 20:53:18 48° WSW 20:58:21 10° NW
Cosmos 1464 Rocket 4.3 20:47:37 10° N 20:53:33 48° ENE 20:59:28 10° SSE
CZ-2D R/B 4.5 20:49:53 10° S 20:53:36 43° W 20:57:21 10° NNW
Cosmos 1726 Rocket 3.6 20:49:50 10° N 20:54:16 65° E 20:58:39 10° SSE
YAOGAN 11 4.5 20:53:43 10° S 20:58:04 67° WSW 21:02:24 10° NNW
Cosmos 2369 Rocket 4.4 20:57:13 10° NNE 20:59:19 12° NE 21:01:24 10° ENE
Cosmos 2219 Rocket 3.8 20:54:32 10° SW 20:59:51 41° WNW 21:05:10 10° N
PSLV R/B 4.4 20:57:52 11° SE 21:00:23 26° ENE 21:03:03 10° NNE
Cosmos 2058 Rocket 3.1 20:58:13 10° N 21:02:34 61° E 21:06:52 10° SSE
Lacrosse 5 rocket 1.2 20:59:19 10° SW 21:03:09 87° NW 21:07:13 10° NE
SL-16 R/B 2.2 20:58:18 10° S 21:03:53 67° ESE 21:09:30 10° NNE
deb Chang Zheng 4 3.6 21:05:50 10° NNE 21:10:17 90° NW 21:14:39 10° SSW
Cosmos 2034 Rocket 4.4 21:04:32 10° N 21:10:44 50° ENE 21:16:44 11° SSE
Cosmos 1666 3.2 21:07:15 10° N 21:11:00 43° ENE 21:14:15 13° SSE
Cosmos 1602 Rocket 4.4 21:08:10 10° SSE 21:12:11 34° E 21:16:14 10° NNE
Meteor 1-23 Rocket 4.2 21:07:11 10° S 21:12:47 74° E 21:18:29 10° NNE
Abrixas rocket 3.0 21:09:31 10° NW 21:12:52 49° NNE 21:15:54 12° E
H-2A R/B 4.1 21:11:44 10° ENE 21:13:06 11° ENE 21:14:30 10° NE
Okean 2 3.4 21:09:15 10° S 21:13:24 69° E 21:17:34 10° NNE
Aureole 2 Rocket 3.1 21:10:34 10° S 21:14:22 40° ESE 21:17:52 10° NE
Cosmos 494 Rocket 3.9 21:14:12 10° SSW 21:19:18 78° ESE 21:24:26 10° NNE
Cosmos 1743 3.5 21:16:18 10° NNW 21:20:04 52° W 21:23:47 10° S
SPOT 1/Viking Rocket 4.4 21:17:06 14° SE 21:20:57 34° ENE 21:25:34 10° N
Cosmos 1461 3.9 21:20:20 10° NNW 21:24:21 36° NE 21:27:10 16° ESE
Cosmos 1603 4.0 21:27:20 10° S 21:32:37 43° ESE 21:37:54 10° NE
MetOp-B 4.3 21:28:40 15° SSE 21:33:00 61° ENE 21:38:17 10° N
PSLV R/B 4.5 21:31:29 10° SSW 21:34:25 24° SSE 21:34:54 24° SE
H-2A R/B 3.1 21:32:11 10° S 21:36:12 43° W 21:40:20 10° NNW
Meteor 2-9 Rocket 4.3 21:32:10 10° NNW 21:37:50 82° W 21:43:22 11° S
Meteor 2-4 Rocket 4.2 21:32:04 10° SSW 21:37:51 69° W 21:43:47 10° N
CZ-2C R/B 3.6 21:38:01 10° WSW 21:38:58 12° W 21:39:56 10° WNW
SPOT 5 2.7 21:38:18 15° S 21:41:58 82° WSW 21:46:21 10° NNW
Cosmos 1626 Rocket 3.5 21:41:51 11° S 21:46:07 80° E 21:50:33 10° N
Cosmos 2297 4.5 21:41:04 10° NW 21:46:33 48° WSW 21:51:37 12° S
Cosmos 1302 Rocket 4.0 21:42:34 10° NNW 21:47:50 82° WSW 21:51:34 20° SSE
CZ-4 SHROUD 4.2 21:49:26 17° SSW 21:51:34 43° W 21:54:38 10° NNW
APEX 3.7 21:50:07 10° NNW 21:54:05 71° WSW 21:57:11 23° SSE
SeaSat 1 3.1 21:53:09 17° S 21:56:49 51° WSW 22:01:38 10° NW
ATLAS CENTAUR R/B 4.2 21:54:47 10° WSW 21:59:00 27° NW 22:03:17 10° NNE
CZ-4B R/B 3.4 21:54:19 10° NNE 21:59:23 84° ESE 22:04:21 11° SSW
Cosmos 1943 4.0 21:57:45 25° SE 21:59:26 30° ESE 22:04:18 10° NE
Cosmos 2228 4.2 22:00:08 10° NNW 22:04:17 41° W 22:07:57 13° SSW
BREEZE-M DEB (TANK) 4.0 22:11:59 10° W 22:13:12 16° SW 22:13:12 16° SW
Tsikada Rocket 4.3 22:07:45 10° SSW 22:14:08 71° W 22:20:33 10° N
YAOGAN 6 3.0 22:13:00 32° S 22:14:31 62° W 22:18:14 10° NNW
Terra 2.7 22:13:07 28° ESE 22:14:40 36° ENE 22:19:00 10° N
Cosmos 1943 Rocket 4.1 22:12:49 10° N 22:16:31 18° NE 22:19:29 12° E
Atlas Centaur 2 3.6 22:10:47 10° SW 22:17:50 33° SSE 22:20:37 27° SE
CZ-4C R/B 3.5 22:17:57 41° SE 22:19:19 69° ENE 22:23:29 10° N
COSMOS 2455 2.8 22:13:41 10° SSW 22:19:38 70° ESE 22:25:38 10° NNE
Envisat 4.5 22:16:48 11° SSW 22:21:11 31° W 22:25:42 10° NNW
ATLAS 3B R/B 3.3 22:18:09 25° SSE 22:22:01 41° ESE 22:28:59 10° NE
SL-08 RB Rocket 3.6 22:23:10 39° SSE 22:24:53 89° E 22:29:28 10° NNW
Cosmos 407 Rocket 4.2 22:25:05 34° ESE 22:25:42 35° E 22:30:25 10° NE
USA 81 4.0 22:20:32 10° N 22:25:51 80° E 22:28:05 36° SSE
IGS 5A 4.0 22:29:33 39° E 22:30:10 42° ENE 22:34:07 10° N
USA 234 3.6 22:27:51 29° SSE 22:31:05 53° SW 22:37:30 10° NW
Cosmos-2242 4.5 22:27:53 10° NNE 22:31:28 24° ENE 22:31:50 23° E
Cosmos 1758 Rocket 3.7 22:36:07 50° ESE 22:36:33 52° E 22:40:50 10° NNE
CARTOSAT-1 3.5 22:40:38 56° SE 22:41:22 69° ENE 22:45:41 10° N
Cosmos 1953 3.9 22:38:18 10° NNE 22:41:17 22° ENE 22:41:17 22° ENE
Lacrosse 5 rocket 4.3 22:40:16 10° WNW 22:43:00 18° NNW 22:45:51 10° NNE
SL-24 R/B 4.5 22:39:00 10° NNE 22:43:50 62° E 22:44:56 49° SE
Cosmos 2369 Rocket 2.2 22:38:48 10° NNW 22:44:29 68° ENE 22:46:13 44° SE
Cosmos 2142 Rocket 4.5 22:39:58 10° N 22:46:19 82° W 22:49:05 36° S
SAR-Lupe-2 3.4 22:47:10 87° WNW 22:47:10 87° WNW 22:50:45 10° NNW
Lacrosse 4 Rocket 2.6 22:50:40 29° ENE 22:50:40 29° ENE 22:53:04 10° NE
Abrixas rocket 4.1 22:46:53 10° W 22:48:53 24° WSW 22:48:53 24° WSW
ARGOS 3.9 22:48:12 28° SSW 22:50:42 47° W 22:55:57 10° NNW
H-2A R/B 1.8 22:50:29 53° SSE 22:51:42 89° ENE 22:56:45 10° NNW
Meteor 1-22 Rocket 4.1 22:47:59 10° N 22:53:32 89° W 22:55:18 47° S
Cosmos 1825 Rocket 4.1 22:54:01 35° SW 22:55:37 54° W 23:00:00 10° N
Cosmos 1634 Rocket 4.3 22:53:25 10° NNW 22:59:30 62° W 23:02:13 33° SSW
Cosmos 1992 Rocket 4.3 22:57:06 10° NNW 23:02:14 57° WSW 23:03:30 45° SSW
Cosmos 2263 4.2 22:57:50 10° NNW 23:03:27 70° ENE 23:04:45 52° SE
DMSP B5D2-2 4.0 23:00:13 10° NNE 23:05:32 87° WNW 23:07:02 49° SSW
Cosmos 1346 Rocket 3.3 23:10:07 49° W 23:10:26 51° WNW 23:14:16 10° N
Cosmos 1190 Rocket 4.3 23:14:26 36° SW 23:16:32 64° WNW 23:21:50 10° NNE
Cosmos 1758 3.7 23:20:57 10° N 23:24:30 60° NNE 23:24:30 60° NNE
Cosmos 2279 Rocket 4.2 23:20:19 10° NNW 23:26:30 66° W 23:28:18 46° SSW
Spot 4 4.2 23:27:26 49° WSW 23:27:53 51° W 23:32:33 10° NNW
Cosmos 1842 3.8 23:32:29 55° NW 23:32:29 55° NW 23:35:55 10° N
Cosmos 676 Rocket 4.0 23:31:29 59° SW 23:32:27 78° WNW 23:37:49 10° NNE
Meteor 2-5 Rocket 4.4 23:39:51 40° E 23:39:59 40° E 23:45:23 10° NNE
Cosmos 1943 4.4 23:39:28 18° WSW 23:43:18 40° WNW 23:48:39 10° N
Cosmos 1932 4.3 23:45:41 67° SSE 23:46:19 73° ESE 23:52:32 10° NE
Cosmos 1140 Rocket 3.4 23:49:49 74° E 23:49:49 74° E 23:54:53 10° NNE
Terra 3.4 23:52:00 23° WSW 23:52:27 24° W 23:56:18 10° NW
